Location: Chassagnes
(44.4047°N, 4.1657°E)
Time: 12:08:45
(UTC+00:00)

SAR-Lupe-4 - Pass Details

Date: 27 October 2020
Orbit: 481 x 484 km, 98.2° (Epoch: 22 November)

Event Time Altitude Azimuth Distance (km) Brightness Sun altitude
Rises 17:54:25 0° 10° (N) 2,554 7.1 -14.0°
Reaches altitude 10° 17:56:30 10° 6° (N) 1,669 6.2 -14.3°
Maximum altitude 18:00:01 61° 287° (WNW) 554 4.1 -15.0°
Drops below altitude 10° 18:03:32 10° 206° (SSW) 1,655 6.6 -15.6°
Sets 18:05:36 0° 203° (SSW) 2,530 7.6 -16.0°
